Tracking 29799 objects as of 11-Oct-2024
HD Live streaming from Space Station
objects crossing your sky now

USA 207

Track USA 207 now!
USA 207 is classified as:


NORAD ID: 35815
Int'l Code: 2009-047A
Perigee: 35,748.7 km
Apogee: 35,844.9 km
Inclination: 0.1 °
Period: 1,436.3 minutes
Semi major axis: 42167 km
RCS: Unknown
Launch date: September 8, 2009
Source: United States (US)
Launch site: AIR FORCE EASTERN TEST RANGE (AFETR)

USA 207 is an U.S. government communications satellite
Your satellite tracking list
Your tracking list is empty




NASA's NSSDC Master Catalog

Two Line Element Set (TLE):
1 35815U 09047A   24278.41403044 0.00000000  00000-0  00000-0 0    08
2 35815   0.1424 189.2532 0011410 156.5711 203.4289  1.00260981    03
Source of the keplerian elements: McCants